Time,B instrument,Bx,By,Bz,sigma B,Ion instrument,Status,Tp_par,Tp_perp,carrot,r_sun,clat,clong,earth_he_angle,n_p,vp_x,vp_y,vp_z,vth_p_par,vth_p_perp
1980-12-17 00:34:30,1,-27.6,8.4,-30.8,0.0,1,1,98231.1,192824.0,1703,0.4002111,6.8798523,234.5769,242.87378,44.7065,332.694,35.901,-56.3059,40.2701,56.4207
1980-12-17 00:45:18,-1,nan,nan,nan,nan,1,4,nan,nan,1703,0.40030509,6.8810997,234.50375,242.89828,nan,nan,nan,nan,nan,nan
1980-12-17 00:46:32,1,-6.05,34.15,-28.0,2.18975,1,1,82547.4,162561.0,1703,0.40031362,6.8812132,234.49426,242.90051,36.7914,411.432,45.7486,-75.7151,36.9156,51.8043
1980-12-17 00:51:56,1,-25.2333,33.2,-7.7,1.17284,1,1,73953.9,183278.0,1703,0.40035635,6.8817806,234.45461,242.91164,43.7369,350.772,51.5685,-27.8911,34.9412,55.0064
1980-12-17 00:57:20,1,-30.6667,23.9,7.96667,2.13333,1,1,66684.6,173252.0,1703,0.40040761,6.8824615,234.41719,242.925,41.9046,337.21,37.6071,18.8306,33.1796,53.4806
1980-12-17 02:00:54,-1,nan,nan,nan,nan,1,3,nan,nan,1703,0.40094632,6.8895264,233.9789,243.06483,nan,373.523,49.8059,-19.7433,nan,nan
1980-12-17 02:06:18,-1,nan,nan,nan,nan,1,4,nan,nan,1703,0.40099764,6.8901901,233.94138,243.07809,nan,nan,nan,nan,nan,nan
1980-12-17 02:11:42,1,11.8333,42.7,-1.9,2.56688,1,1,81726.4,107147.0,1703,0.40104049,6.8907433,233.90166,243.08916,38.0995,439.582,73.6873,-12.5846,36.7315,42.058
1980-12-17 02:22:32,-1,nan,nan,nan,nan,1,4,nan,nan,1703,0.40113467,6.8919611,233.82832,243.11348,nan,nan,nan,nan,nan,nan
1980-12-17 02:27:56,-1,nan,nan,nan,nan,1,4,nan,nan,1703,0.40117747,6.8925152,233.7886,243.12454,nan,nan,nan,nan,nan,nan
1980-12-17 02:33:20,1,-18.4333,37.8,11.5667,0.686375,1,1,55105.8,71849.1,1703,0.40122879,6.8931789,233.75499,243.1378,17.171,355.76,57.8732,7.17272,30.1618,34.4404
1980-12-17 02:38:44,1,-30.6,29.2,9.5,1.19164,1,1,66628.6,129701.0,1703,0.40127164,6.893733,233.71527,243.14886,40.2636,356.289,60.0493,-1.68309,33.1656,46.2732
1980-12-17 02:53:33,1,-29.7,25.7,17.3,1.36015,1,1,73321.4,128281.0,1703,0.39957368,6.9361849,232.92004,242.49036,44.0552,330.693,25.8455,30.5331,34.7915,46.0192
1980-12-17 02:56:24,1,-34.2167,20.1833,14.6333,3.23703,1,1,69830.9,116805.0,1703,0.40142572,6.8957253,233.59492,243.18867,45.4324,320.992,41.0547,3.3234,33.9533,43.9125
1980-12-17 02:56:25,1,-34.2167,20.1833,14.6333,3.23703,1,1,70128.6,103353.0,1703,0.40140861,6.895504,233.5905,243.18425,32.8841,343.82,27.5545,38.0539,34.0256,41.3066
1980-12-17 02:56:26,1,-33.72,20.68,14.86,3.05051,1,1,68469.5,117426.0,1703,0.40142572,6.8957253,233.59492,243.18867,38.6097,317.192,-2.91239,24.0023,33.6207,44.0291
1980-12-17 02:57:36,1,-35.1167,19.9667,14.0,1.00347,1,1,59030.1,141651.0,1703,0.4014343,6.8958359,233.58542,243.19089,42.8171,324.718,10.2334,22.4548,31.2173,48.358
1980-12-17 02:58:58,1,-31.6,22.75,16.4,1.65101,1,1,73383.8,122364.0,1703,0.40144283,6.8959465,233.57591,243.1931,38.2622,332.834,12.9673,35.8776,34.8063,44.9454
1980-12-17 03:00:19,1,-33.0667,23.1,14.3,1.07652,1,1,65140.4,122653.0,1703,0.40145999,6.8961687,233.56862,243.19753,38.8392,333.528,25.1673,23.9511,32.7931,44.9984
1980-12-17 03:01:40,1,-36.24,18.04,14.18,1.50546,1,1,63718.1,112498.0,1703,0.40146852,6.8962774,233.5591,243.19972,36.8661,322.289,6.68212,28.5581,32.4332,43.0954
1980-12-17 03:03:01,1,-37.22,18.28,11.58,1.06245,1,1,74163.5,128099.0,1703,0.40148568,6.8964958,233.54788,243.20413,42.8235,318.455,6.84534,13.7821,34.9907,45.9866
1980-12-17 03:04:22,1,-36.6,24.24,1.14,3.06411,1,1,61870.9,120507.0,1703,0.40149426,6.8966055,233.53836,243.20633,37.6956,321.958,23.5132,7.03341,31.9596,44.6031
1980-12-17 03:05:43,1,-28.4286,24.8143,17.4571,5.02281,1,1,73814.4,108353.0,1703,0.40150285,6.8967152,233.52885,243.20854,39.304,336.936,39.3616,12.882,34.9083,42.2939
1980-12-17 03:07:04,1,-31.6667,23.4333,15.3333,1.23288,1,1,76469.7,118647.0,1703,0.40151995,6.8969336,233.52155,243.21295,41.04,341.3,29.643,33.3911,35.5306,44.2575
1980-12-17 03:08:25,1,-35.3143,-0.457143,19.6857,4.80021,1,1,85064.7,133540.0,1703,0.40152854,6.8970432,233.51202,243.21515,52.2471,317.055,-56.1823,34.1302,37.4742,46.953
1980-12-17 03:09:46,1,-38.78,11.08,13.44,1.09252,1,1,71886.9,117706.0,1703,0.40153712,6.8971519,233.50252,243.21736,40.1655,314.19,-7.6247,17.0622,34.4495,44.0815
1980-12-17 03:11:07,1,-31.94,7.2,22.54,9.18895,1,1,81959.7,111690.0,1703,0.40155423,6.8973713,233.49129,243.22176,42.1019,316.704,6.67386,7.86871,36.7839,42.9403
1980-12-17 03:12:28,1,-30.7833,12.5333,24.2333,1.34381,1,1,67303.2,119390.0,1703,0.40156281,6.89748,233.48178,243.22397,39.8929,333.145,2.82511,50.7958,33.3331,44.3958
1980-12-17 03:13:49,1,-30.5833,21.0333,18.35,4.03643,1,1,77402.7,115820.0,1703,0.40157139,6.8975897,233.47226,243.22617,41.1142,325.339,14.8274,28.2249,35.7467,43.7271
1980-12-17 03:15:10,1,-30.12,25.16,14.54,2.69488,1,1,68966.0,112836.0,1703,0.4015885,6.8978081,233.46495,243.23058,38.0796,335.767,28.7472,29.9169,33.7424,43.1601
1980-12-17 03:16:31,1,-31.6,19.94,17.9,1.59072,1,1,66310.5,120972.0,1703,0.40159708,6.8979177,233.45544,243.23279,38.9546,328.811,9.76112,38.5388,33.0864,44.689
1980-12-17 03:17:52,1,-30.46,17.54,20.84,1.75362,1,1,63705.3,127110.0,1703,0.40160567,6.8980274,233.44592,243.23499,41.3613,333.582,16.224,42.2565,32.4299,45.8086
1980-12-17 03:19:13,1,-25.7143,23.0714,22.1571,2.48768,1,1,76241.0,119974.0,1703,0.40162277,6.8982458,233.43471,243.2394,40.9971,340.043,25.5439,41.7025,35.4774,44.5042
1980-12-17 03:20:34,1,-24.8167,27.05,19.9333,1.37093,1,1,72263.4,122131.0,1703,0.40163136,6.8983555,233.4252,243.24161,48.0592,341.004,37.0093,39.367,34.5396,44.9025
1980-12-17 03:21:55,1,-16.0667,31.9833,21.5333,0.610328,1,1,74951.6,110428.0,1703,0.40163994,6.8984642,233.41568,243.2438,43.8618,363.788,49.718,46.007,35.1761,42.697
1980-12-17 03:23:16,1,-7.73333,34.45,22.1667,1.01994,1,1,71405.5,123377.0,1703,0.4016571,6.8986826,233.40837,243.24821,47.0268,381.672,55.827,44.1967,34.334,45.1311
1980-12-17 03:24:37,1,-4.94286,36.6143,19.4714,2.42074,1,1,82940.8,117421.0,1703,0.40166563,6.8987923,233.39885,243.25041,45.66,400.28,60.7795,40.1958,37.0034,44.0281
1980-12-17 03:25:58,1,-12.7833,32.5833,22.6667,1.19513,1,1,72221.6,104798.0,1703,0.40167421,6.8989019,233.38934,243.25262,40.784,371.781,48.4428,51.8736,34.5296,41.5943
1980-12-17 03:27:19,1,-11.9286,31.3571,24.3857,1.0406,1,1,75385.2,108146.0,1703,0.40169138,6.8991203,233.37813,243.25703,39.22,369.755,49.503,49.1246,35.2777,42.2535
1980-12-17 03:28:40,1,-15.6667,30.9333,23.0,1.10805,1,1,72689.8,117444.0,1703,0.40169996,6.89923,233.36861,243.25923,44.256,360.407,46.6822,48.2081,34.6413,44.0325
1980-12-17 03:30:01,1,-13.8857,31.8,23.1286,0.637277,1,1,74499.4,107962.0,1703,0.40171707,6.8994484,233.3613,243.26364,42.3503,364.974,48.6622,48.0781,35.0699,42.2175
1980-12-17 03:31:22,1,-13.8667,30.8833,24.0333,0.621155,1,1,72907.0,105002.0,1703,0.40172565,6.8995581,233.35179,243.26585,42.4483,365.093,45.5466,49.6299,34.6931,41.6349
1980-12-17 03:32:43,1,-14.7333,30.25,23.6333,0.804329,1,1,71412.0,114959.0,1703,0.40173423,6.8996668,233.34227,243.26805,43.5334,362.745,39.4421,55.1085,34.3355,43.5642
1980-12-17 03:34:04,1,-11.8,31.6833,23.8333,0.472875,1,1,78488.0,108885.0,1703,0.40175134,6.8998861,233.33496,243.27246,41.7343,371.945,49.6864,49.6028,35.9964,42.3977
1980-12-17 03:35:25,1,-9.73333,32.4167,23.3333,0.556028,1,1,74041.8,106103.0,1703,0.40175992,6.8999949,233.32544,243.27466,42.9271,376.001,50.004,51.7559,34.962,41.8525
1980-12-17 03:36:46,1,-12.2833,32.6,22.3333,2.15336,1,1,79408.3,110374.0,1703,0.40176851,6.9001045,233.31203,243.27687,42.2049,379.821,54.8281,47.9326,36.2069,42.6866
1980-12-17 03:38:07,1,-10.5,33.95,20.9667,2.1122,1,1,75916.3,113649.0,1703,0.40178561,6.9003229,233.30472,243.28128,42.5369,374.219,51.273,49.8567,35.4018,43.3152
1980-12-17 03:39:28,1,-33.64,17.78,17.66,1.22246,1,1,77127.1,117697.0,1703,0.4017942,6.9004326,233.2952,243.28348,44.8686,320.116,8.17897,35.4563,35.683,44.0798
1980-12-17 03:40:49,1,-31.0,19.2667,20.05,0.874484,1,1,70057.3,111781.0,1703,0.40180278,6.9005423,233.28569,243.28569,42.8149,324.038,18.2468,39.1135,34.0083,42.9577
1980-12-17 03:42:10,1,-20.4,29.14,21.42,1.09727,1,1,67622.5,106615.0,1703,0.40181988,6.9007607,233.27837,243.29008,43.426,350.942,43.7236,41.1097,33.4121,41.9534
1980-12-17 03:43:31,1,-21.0833,31.5333,17.5667,2.40607,1,1,72601.4,120718.0,1703,0.40182847,6.9008703,233.26886,243.2923,44.3193,350.999,44.1235,43.5792,34.6203,44.642
1980-12-17 03:44:52,1,-19.2833,29.6167,21.5,1.05961,1,1,75031.2,113382.0,1703,0.40183705,6.900979,233.25543,243.29449,42.8693,355.13,42.5217,47.7606,35.1948,43.2644
1980-12-17 03:46:13,-1,nan,nan,nan,nan,1,4,nan,nan,1703,0.40185422,6.9011974,233.24812,243.2989,nan,nan,nan,nan,nan,nan
1980-12-17 03:47:34,1,-27.55,18.3167,22.4333,6.31159,1,1,75303.4,123292.0,1703,0.40186274,6.9013071,233.23862,243.30112,45.8896,337.417,26.5849,44.6437,35.2586,45.1154
1980-12-17 03:48:55,1,-32.4,9.7,22.7333,2.18683,1,1,68975.8,119368.0,1703,0.40187132,6.9014168,233.2291,243.30331,45.015,318.215,-6.63922,38.7637,33.7447,44.3917
1980-12-17 03:50:16,1,-34.74,13.0,18.2,1.82713,1,1,68029.1,111358.0,1703,0.40188849,6.9016352,233.22179,243.30772,43.0742,307.557,-12.1221,26.769,33.5124,42.8765
1980-12-17 03:51:37,1,-25.48,17.34,25.96,1.27059,1,1,62971.1,219870.0,1703,0.40189707,6.9017448,233.21228,243.30994,71.9505,334.192,26.9118,45.5532,32.2425,60.2478
1980-12-17 03:52:58,1,-23.9,22.5,23.95,2.16391,1,1,74240.2,107797.0,1703,0.4019056,6.9018536,233.19885,243.31213,38.7298,350.432,37.0033,48.6218,35.0088,42.1853
1980-12-17 03:54:19,1,-23.1167,11.1167,30.2333,2.55636,1,1,79316.4,119081.0,1703,0.40192276,6.9020729,233.19154,243.31654,41.4654,344.561,-16.5666,72.6234,36.1859,44.3384
1980-12-17 03:55:40,1,-26.5667,15.5167,26.1,1.02157,1,1,74397.7,114292.0,1703,0.40193135,6.9021816,233.18202,243.31874,40.9082,338.332,19.7002,52.0652,35.0459,43.4375
1980-12-17 03:57:01,1,-27.9333,14.85,24.9333,1.0694,1,1,80279.3,121141.0,1703,0.40194845,6.902401,233.17471,243.32315,43.8102,337.258,12.4203,54.3483,36.4049,44.7201
1980-12-17 03:58:22,1,-28.7,16.46,23.16,0.54111,1,1,81518.5,105132.0,1703,0.40195704,6.9025097,233.16521,243.32536,38.9463,330.522,13.333,45.5792,36.6848,41.6606
1980-12-17 03:59:43,1,-26.2143,17.8714,24.3429,1.99857,1,1,75969.0,114837.0,1703,0.40196562,6.9026194,233.15569,243.32756,40.2028,336.394,16.3994,52.7561,35.4141,43.541
1980-12-17 04:01:04,1,-28.54,21.32,18.54,0.875443,1,1,67896.8,117853.0,1703,0.40198272,6.9028368,233.14836,243.33195,42.7722,326.217,26.4888,35.3301,33.4798,44.1091
1980-12-17 04:02:25,1,-32.1333,11.15,21.2333,1.16916,1,1,72610.9,97390.9,1703,0.40199131,6.9029446,233.13493,243.33415,36.0285,308.994,-21.4145,49.6846,34.6225,40.0975
1980-12-17 04:05:07,1,-33.34,11.6,18.36,0.291204,1,1,69720.5,119682.0,1703,0.40201706,6.9032688,233.11809,243.34074,37.7927,315.73,-2.45282,37.4364,33.9264,44.45
1980-12-17 04:06:28,1,-34.08,9.18,18.4,0.398999,1,1,65854.7,125126.0,1703,0.40202564,6.9033766,233.10857,243.34294,39.7551,315.394,-3.50334,34.5795,32.9724,45.4498
1980-12-17 04:07:49,1,-33.2,16.56,15.92,1.12783,1,1,63243.6,126040.0,1703,0.40203422,6.9034843,233.09904,243.34514,40.1091,316.454,5.03565,33.213,32.3122,45.6155
1980-12-17 04:09:10,1,-34.34,13.8,15.4,1.10018,1,1,74930.0,121143.0,1703,0.40205139,6.9036999,233.09172,243.34953,39.7382,316.427,7.33803,30.1369,35.1711,44.7206
1980-12-17 04:10:31,1,-32.25,16.6667,16.5333,1.27421,1,1,69907.0,114895.0,1703,0.40205997,6.9038086,233.07829,243.35173,37.4371,315.187,11.3867,28.758,33.9718,43.5521
1980-12-17 04:11:52,1,-31.12,15.54,19.0,1.68048,1,1,72159.1,119614.0,1703,0.40206856,6.9039164,233.06877,243.35393,40.0393,321.375,12.2131,34.7846,34.5146,44.4375
1980-12-17 04:13:13,1,-26.06,26.54,15.66,2.17421,1,1,68685.5,106261.0,1703,0.40208572,6.9041319,233.06145,243.35832,38.4126,327.689,29.7698,36.2476,33.6737,41.8837
1980-12-17 04:14:34,1,-25.78,29.3,13.42,0.619032,1,1,66255.7,109915.0,1703,0.4020943,6.9042406,233.05193,243.36052,40.7832,331.354,41.3866,28.1952,33.0727,42.5977
1980-12-17 04:15:55,1,-25.6333,30.6833,11.1,1.22486,1,1,74336.1,122703.0,1703,0.40210289,6.9043484,233.0424,243.36272,47.6411,333.994,46.8006,19.342,35.0314,45.0075
1980-12-17 04:17:16,1,-25.0333,26.9167,16.6333,0.718215,1,1,78415.2,122458.0,1703,0.40211999,6.9045639,233.03508,243.36711,42.1038,335.289,36.4392,34.433,35.9797,44.9626
1980-12-17 04:18:37,1,-24.3833,18.4,24.4333,1.91493,1,1,78069.7,109207.0,1703,0.40212858,6.9046717,233.02165,243.36931,41.9686,334.778,21.4775,54.4995,35.9004,42.4603
1980-12-17 04:19:58,1,-25.8167,26.5333,15.7,1.28463,1,1,92407.4,115241.0,1703,0.40213716,6.9047804,233.01213,243.37151,40.0962,336.538,33.4311,37.7112,39.0581,43.6176
1980-12-17 04:21:19,1,-25.2286,28.9571,13.3857,1.50902,1,1,86943.0,129541.0,1703,0.40215433,6.9049959,233.00481,243.3759,43.3057,337.686,41.2648,27.6867,37.8857,46.2446
1980-12-17 04:22:40,1,-26.15,25.35,17.4333,0.572033,1,1,78636.3,125187.0,1703,0.40216291,6.9051037,232.99529,243.3781,42.5815,333.776,35.941,33.2033,36.0304,45.4608
1980-12-17 04:24:01,1,-25.9143,24.8143,18.4143,2.16088,1,1,85336.4,116435.0,1703,0.40218008,6.9053202,232.98796,243.38249,41.6848,333.044,35.082,36.1505,37.534,43.8429
1980-12-17 04:25:22,1,-27.98,26.18,14.02,1.11032,1,1,86928.6,122997.0,1703,0.40218866,6.9054279,232.97844,243.38469,42.1826,333.268,40.6081,22.5366,37.8825,45.0614
1980-12-17 04:26:43,1,-27.7833,21.9333,19.8167,1.39821,1,1,97013.3,106037.0,1703,0.40219724,6.9055357,232.96892,243.38689,40.5904,328.745,25.4335,38.2462,40.0197,41.8395
1980-12-17 04:28:04,1,-29.3,16.74,22.0,0.778717,1,1,73752.8,110615.0,1703,0.40221441,6.9057522,232.95769,243.39128,40.7582,326.182,21.8807,40.2155,34.8937,42.7332
1980-12-17 04:29:25,1,-30.3833,16.95,19.0667,5.44207,1,1,72118.4,110077.0,1703,0.40222299,6.9058599,232.94817,243.39348,38.6632,327.854,40.6174,25.787,34.5049,42.6292
1980-12-17 04:30:46,1,-37.55,12.2167,10.0,1.41087,1,1,80593.0,136405.0,1703,0.40223157,6.9059677,232.93864,243.39568,44.7765,307.552,6.78394,4.00373,36.476,47.454
1980-12-17 04:32:07,1,-34.9333,12.5833,15.5333,1.25,1,1,83752.5,120584.0,1703,0.40224868,6.9061832,232.9313,243.40005,37.9708,319.248,6.62587,26.7571,37.1841,44.6172
1980-12-17 04:33:28,1,-34.38,12.98,17.48,0.629921,1,1,77665.2,112990.0,1703,0.40225726,6.906292,232.92178,243.40225,36.1366,319.319,4.32857,30.6333,35.8073,43.1895
1980-12-17 04:34:49,1,-35.0333,13.1,16.8667,0.74012,1,1,74405.8,105750.0,1703,0.40226585,6.9063997,232.91226,243.40445,36.0824,319.618,14.6816,23.328,35.0478,41.7829
1980-12-17 04:36:10,1,-34.12,9.4,18.44,3.0206,1,1,81410.4,130865.0,1703,0.40228301,6.9066153,232.90103,243.40884,41.4432,315.313,-15.6836,32.6217,36.6605,46.4804
1980-12-17 04:37:31,1,-34.42,8.46,19.36,1.75909,1,1,72392.0,107834.0,1703,0.4022916,6.906724,232.89151,243.41104,37.8805,320.305,-9.56194,39.354,34.5703,42.1925
1980-12-17 04:38:52,1,-32.15,0.833333,22.9667,0.810521,1,1,73272.6,123775.0,1703,0.40230018,6.9068317,232.88199,243.41324,39.2741,323.407,-23.5972,44.4361,34.7799,45.2038
1980-12-17 04:40:13,1,-32.25,1.53333,22.1667,2.90464,1,1,72516.3,100134.0,1703,0.40231735,6.9070473,232.87466,243.41763,34.1565,331.182,-18.9159,48.7806,34.6,40.6582
1980-12-17 04:41:34,1,-25.3667,-4.26667,28.2333,2.59551,1,1,86138.3,120082.0,1703,0.40232593,6.907155,232.86514,243.41983,38.1519,345.86,-34.3291,65.9252,37.71,44.5242
1980-12-17 04:42:55,1,-30.56,-2.12,23.6,3.02523,1,1,79584.5,120888.0,1703,0.40233451,6.9072638,232.85562,243.42203,39.0396,321.377,-26.1903,38.2388,36.247,44.6735
1980-12-17 04:44:16,1,-26.6333,2.0,27.1333,1.09443,1,1,81972.9,115718.0,1703,0.40235168,6.9074793,232.84439,243.42642,35.9843,343.344,-8.35781,63.714,36.7869,43.7078
1980-12-17 04:45:37,1,-26.8857,3.45714,26.6571,1.65369,1,1,82938.7,115159.0,1703,0.40236026,6.9075871,232.83487,243.42862,37.2463,333.812,-10.038,56.716,37.003,43.6021
1980-12-17 04:46:58,1,-27.9333,1.46667,25.5333,0.476095,1,1,86855.9,122949.0,1703,0.40236884,6.9076958,232.82535,243.43082,39.1443,327.119,-18.7207,51.1349,37.8667,45.0527
1980-12-17 04:48:19,1,-31.5571,5.91429,20.6,1.81367,1,1,92363.2,115573.0,1703,0.40238595,6.9079113,232.81802,243.43521,39.4816,322.659,-6.83494,45.4531,39.0488,43.6803
1980-12-17 04:49:40,1,-29.82,10.7,20.68,3.59489,1,1,80349.2,127163.0,1703,0.40239453,6.9080191,232.8085,243.43741,39.7272,325.866,14.1823,35.8211,36.4207,45.8183
1980-12-17 04:51:01,1,-30.42,8.66,21.0,2.67283,1,1,74213.0,132524.0,1703,0.4024117,6.9082355,232.80118,243.4418,41.1166,328.847,14.1925,41.801,35.0024,46.774
1980-12-17 04:52:22,1,-34.76,4.64,16.76,1.03885,1,1,82734.8,106769.0,1703,0.40242028,6.9083433,232.79166,243.444,36.9059,314.761,-8.27173,24.3745,36.9574,41.9836
1980-12-17 04:53:43,1,-32.1,2.51667,20.6333,1.31667,1,1,69812.0,131443.0,1703,0.40242887,6.9084511,232.77823,243.4462,40.2304,319.66,-9.20124,36.7467,33.9487,46.583
1980-12-17 04:55:04,1,-31.24,15.0,17.24,0.817802,1,1,70263.6,113691.0,1703,0.40244603,6.9086666,232.7709,243.45059,36.0741,323.635,19.5876,29.8207,34.0583,43.3233
1980-12-17 04:56:25,1,-33.55,-0.2,18.4,1.00457,1,1,77511.0,132442.0,1703,0.40245461,6.9087753,232.76138,243.45279,41.4626,314.629,-15.3768,29.7371,35.7717,46.7596
1980-12-17 04:57:46,1,-33.18,10.74,16.36,1.21095,1,1,79069.4,134193.0,1703,0.4024632,6.9088831,232.75186,243.45499,41.0941,316.429,8.34838,24.0277,36.1295,47.0677
1980-12-17 04:59:07,1,-32.18,0.58,19.32,4.07097,1,1,70330.2,107467.0,1703,0.40248036,6.9090986,232.74454,243.45938,33.0344,322.01,2.52661,38.3862,34.0744,42.1207
1980-12-17 05:00:28,1,-32.84,3.18,18.56,0.954149,1,1,77701.4,129480.0,1703,0.40248895,6.9092073,232.73502,243.46158,38.5576,317.344,-28.158,33.8164,35.8156,46.2337
1980-12-17 05:01:49,1,-33.18,4.04,16.92,1.94258,1,1,88973.0,127245.0,1703,0.40249753,6.9093132,232.72157,243.46376,38.7788,319.021,-23.4133,41.3506,38.3254,45.8329
1980-12-17 05:03:10,1,-31.98,5.54,18.84,1.14298,1,1,87809.5,146671.0,1703,0.4025147,6.9095268,232.71423,243.46814,40.8991,316.589,-3.28454,34.0207,38.074,49.2074
1980-12-17 05:04:31,1,-30.6,0.98,20.72,0.987522,1,1,103364.0,137986.0,1703,0.40252328,6.9096336,232.70471,243.47034,40.1062,319.743,-19.7006,41.2833,41.3087,47.7283
1980-12-17 05:05:52,1,-32.44,0.22,17.88,0.396989,1,1,93140.9,137675.0,1703,0.40253186,6.9097404,232.69518,243.47252,40.4566,315.682,-20.9859,34.6269,39.2128,47.6744
1980-12-17 05:07:13,1,-34.45,1.86667,15.2333,1.60529,1,1,92501.9,131127.0,1703,0.40254903,6.9099531,232.68784,243.4769,40.9642,308.971,-19.2343,26.2037,39.0781,46.5269
1980-12-17 05:08:34,1,-32.98,1.12,17.48,0.469894,1,1,88238.1,134151.0,1703,0.40255761,6.9100599,232.6783,243.47908,40.7986,311.368,-22.5342,29.327,38.1668,47.0603
1980-12-17 05:09:55,1,-32.78,2.0,17.88,0.68352,1,1,89627.0,138324.0,1703,0.40256619,6.9101667,232.66487,243.48128,40.5753,310.323,-17.0136,29.1552,38.466,47.7866
1980-12-17 05:11:16,1,-31.42,-15.06,13.16,2.602,1,1,90698.5,124140.0,1703,0.40258336,6.9103804,232.65753,243.48566,41.0959,315.798,-59.315,20.4736,38.6953,45.2704
1980-12-17 05:12:37,1,-33.36,-5.26,15.48,1.87254,1,1,88609.0,123145.0,1703,0.402592,6.9104872,232.64799,243.48784,40.1133,308.307,-35.658,22.0327,38.247,45.0886
1980-12-17 05:13:58,1,-33.64,-6.64,15.08,1.23223,1,1,89226.7,113065.0,1703,0.40260059,6.910594,232.63847,243.49004,37.0404,308.894,-37.255,19.8453,38.38,43.2038
1980-12-17 05:15:19,1,-33.4667,-8.5,11.8333,5.39887,1,1,111407.0,130582.0,1703,0.40261775,6.9108067,232.63113,243.49442,41.517,311.721,-46.2881,17.2965,42.8858,46.4301
1980-12-17 05:16:40,1,-32.02,-2.4,18.2,0.667533,1,1,86745.7,155128.0,1703,0.40262634,6.9109135,232.6216,243.4966,41.4466,313.795,-29.7024,22.4373,37.8427,50.6062
1980-12-17 05:24:00,-1,nan,nan,nan,nan,1,4,nan,nan,1703,0.402695,6.911767,232.57271,243.51411,nan,nan,nan,nan,nan,nan
1980-12-17 05:26:42,1,-32.3,-6.93333,17.0667,0.323179,1,1,93161.2,146889.0,1703,0.40271223,6.9119806,232.54974,243.51849,40.2517,311.415,-38.4258,24.3431,39.2171,49.2439
1980-12-17 05:28:49,1,-28.7,4.93333,22.0,0.377124,1,1,89960.4,124820.0,1703,0.40090048,6.9526086,231.84766,242.83594,38.1477,321.046,-5.80337,41.5261,38.5375,45.3942
1980-12-17 05:29:24,1,-27.8667,-0.3,23.4,1.53478,1,1,92344.7,135257.0,1703,0.40273798,6.9123001,232.53288,243.52507,39.338,315.011,-29.4086,31.7995,39.0449,47.254
1980-12-17 05:31:32,1,-27.5667,2.06667,23.6667,0.432049,1,1,94770.0,120431.0,1703,0.40275514,6.9125137,232.51773,243.52945,38.6647,320.144,-14.7039,45.4048,39.5543,44.5889
1980-12-17 05:34:14,1,-28.3667,1.26667,22.6,0.54569,1,1,88125.8,122585.0,1703,0.40278089,6.9128332,232.50085,243.53601,39.2765,318.415,-11.6028,43.4846,38.1425,44.9859
1980-12-17 05:36:56,1,-27.75,2.45,22.7,0.441588,1,1,86189.3,135272.0,1703,0.40279812,6.9130468,232.47789,243.54039,41.3564,317.937,-15.4763,38.0474,37.7211,47.2566
1980-12-17 05:39:38,1,-28.5333,1.3,22.6,0.169967,1,1,85298.6,141853.0,1703,0.40282387,6.9133673,232.46101,243.54695,39.4371,319.599,-19.4416,37.7684,37.5257,48.3924
1980-12-17 05:42:20,1,-31.6,-1.2,18.6,0.223607,1,1,84830.3,136859.0,1703,0.40284961,6.9136868,232.44415,243.55353,39.9617,312.297,-21.9637,31.0155,37.4225,47.5329
1980-12-17 05:45:02,1,-29.1,-3.65,21.6,0.206155,1,1,80118.0,128316.0,1703,0.40287536,6.9140072,232.42337,243.56009,37.2593,317.217,-28.6128,34.4793,36.3683,46.0254
1980-12-17 05:47:44,1,-29.1667,-1.56667,21.7333,0.316228,1,1,87326.0,134771.0,1703,0.40289259,6.9142208,232.40431,243.56447,39.1698,318.281,-16.4655,36.2387,37.969,47.169
1980-12-17 05:50:26,1,-29.7,-1.9,21.2,0.316228,1,1,88615.7,139439.0,1703,0.40291834,6.9145403,232.38745,243.57104,40.0521,316.995,-21.674,34.533,38.2484,47.9789
1980-12-17 05:53:08,1,-30.8,0.2,19.4667,0.639444,1,1,87720.8,134089.0,1703,0.40294409,6.9148607,232.36667,243.57761,42.0417,311.903,-20.8515,34.1489,38.0548,47.0494
1980-12-17 05:55:50,1,-31.1,0.833333,18.9333,0.69602,1,1,83553.7,127474.0,1703,0.40296125,6.9150734,232.34761,243.58199,38.6817,311.47,-17.2538,34.2656,37.1399,45.8743
1980-12-17 05:58:32,1,-32.0333,5.3,15.7333,4.33026,1,1,86509.5,130024.0,1703,0.402987,6.9153938,232.33075,243.58856,42.8901,299.733,-2.19829,7.06004,37.7911,46.3307
1980-12-17 06:01:14,1,-26.5333,1.85037e-17,24.6667,0.794425,1,1,89516.1,120472.0,1703,0.40301281,6.9157124,232.30997,243.59512,37.3155,323.032,-14.8731,38.412,38.4422,44.5966
1980-12-17 06:03:56,1,-26.3,-3.5,24.6,0.316228,1,1,88518.3,124292.0,1703,0.40302998,6.9159231,232.29089,243.59949,38.4889,321.147,-18.5245,35.9936,38.2274,45.2981
1980-12-17 06:06:38,1,-24.9,-7.5,25.4,0.0,1,1,87589.4,110682.0,1703,0.40305579,6.9162388,232.27399,243.60602,37.2803,326.883,-31.0875,40.6706,38.0263,42.7461
1980-12-17 06:09:20,1,-23.4,-10.575,25.9,1.28136,1,1,84040.3,116206.0,1703,0.4030816,6.9165545,232.25319,243.61256,37.5859,330.932,-38.6355,36.7983,37.2479,43.7998
1980-12-17 06:12:02,1,-24.45,-5.1,25.5,0.820061,1,1,88321.0,120020.0,1703,0.40310735,6.9168701,232.2363,243.61911,37.9389,325.661,-23.6324,41.5202,38.1847,44.5128
1980-12-17 06:14:44,1,-23.7,-4.76667,26.4,0.956847,1,1,89750.8,133772.0,1703,0.40312457,6.9170809,232.21722,243.62347,40.3109,330.72,-14.338,50.2152,38.4926,46.9938
1980-12-17 06:17:26,1,-28.6333,-6.5,21.2,0.618241,1,1,95411.0,111469.0,1703,0.40315038,6.9173965,232.19643,243.63002,37.9377,323.497,-27.2262,35.2706,39.6878,42.8978
1980-12-17 06:20:08,1,-23.4,-8.3,26.0667,0.329983,1,1,87672.9,121478.0,1703,0.40317613,6.9177132,232.17953,243.63657,36.7321,329.812,-34.3705,44.9236,38.0444,44.7823
1980-12-17 06:22:50,1,-23.8333,-8.76667,25.2667,0.663325,1,1,90024.2,119804.0,1703,0.40319335,6.917923,232.16046,243.64093,36.303,330.657,-41.1721,42.0213,38.5512,44.4728
1980-12-17 06:25:32,1,-25.6333,-4.76667,24.8667,0.860233,1,1,84121.4,119283.0,1703,0.4032191,6.9182396,232.14357,243.64748,36.7859,319.219,-31.4624,35.1331,37.2659,44.376
1980-12-17 06:28:14,1,-24.0,-4.7,25.8,0.3,1,1,86393.3,122402.0,1703,0.40324491,6.9185553,232.12277,243.65402,38.1931,326.474,-23.0031,40.6996,37.7657,44.9524
1980-12-17 06:30:56,1,-26.275,-8.825,22.2,1.41023,1,1,94307.7,107852.0,1703,0.40326214,6.918766,232.1037,243.65839,36.1146,320.576,-30.5924,35.417,39.4577,42.196